User: anonymous   Login
Location: Unspecified
(0.0000°N, 0.0000°E)
Time: 14:49:40
(UTC+00:00)
Language:

Diademe D-1D - Orbit

View from above orbital plane
View from above orbital plane
View from above satellite
View from above satellite

Ground track
Ground track

The orbit data is extracted from the following two-line orbital elements,

1  2680U 67014A   17206.10927656 -.00000051 +00000-0 +92032-5 0  9994
2  2680 039.4448 098.1173 0719482 305.0633 048.4634 13.37841869440872
Epoch (UTC): 25 July 2017 02:37:21
Eccentricity: 0.0719482
inclination: 39.4448°
perigee height: 578 km
apogee height: 1656 km
right ascension of ascending node: 98.1173°
argument of perigee: 305.0633°
revolutions per day: 13.37841869
mean anomaly at epoch: 48.4634°
orbit number at epoch: 44087

The dashed part of the orbit path shows where the satellite is in the earth's shadow,  

DLR